Location: Central Coast
(33.3208°S, 151.2336°E)
Time: 22:03:27
(UTC+11:00)

Envisat - Pass Details

Date: 12 October 2017
Orbit: 764 x 766 km, 98.2° (Epoch: 18 December)

Event Time Altitude Azimuth Distance (km) Brightness Sun altitude
Rises 22:43:00 0° 189° (S) 3,262 6.9 -40.4°
Reaches altitude 10° 22:46:09 10° 209° (SSW) 2,327 6.1 -40.8°
Enters shadow 22:48:40 16° 238° (WSW) 1,940 5.6 -41.1°
